QPF
0.00 0.00 0.00 0.00 0.00 0.00 0.00 0.00 0.00 0.00 0.00 0.00 0.00 0.00 0.00 0.00 0.00 0.00 0.00 0.00 0.00 0.00 0.00 0.00 0.00 0.00 0.00 0.00 0.00 0.00 0.01 0.00 0.00 0.01 0.01 0.02 0.03 0.04
0.00 0.00 0.00 0.00 0.00 0.00 0.00 0.00 0.00 0.00 0.00 0.00 0.00 0.00 0.00 0.00 0.00 0.00 0.00 0.00 0.00 0.00 0.00 0.00 0.00 0.00 0.00 0.00 0.00 0.00 0.00 0.00 0.00 0.01 0.01 0.01 0.01 0.01
0.00 0.00 0.00 0.00 0.00 0.00 0.00 0.00 0.00 0.00 0.00 0.00 0.00 0.00 0.00 0.00 0.00 0.00 0.00 0.00 0.00 0.00 0.00 0.00 0.00 0.00 0.00 0.00 0.00 0.00 0.00 0.00 0.00 0.00 0.00 0.00 0.01 0.01
0.00 0.00 0.00 0.00 0.00 0.00 0.00 0.00 0.00 0.00 0.00 0.00 0.00 0.00 0.00 0.00 0.00 0.00 0.00 0.00 0.00 0.00 0.00 0.00 0.00 0.00 0.00 0.00 0.00 0.00 0.00 0.00 0.00 0.00 0.00 0.00 0.00 0.00
0.00 0.00 0.00 0.00 0.00 0.00 0.00 0.00 0.00 0.00 0.00 0.00 0.00 0.00 0.00 0.00 0.00 0.00 0.00 0.00 0.00 0.00 0.00 0.00 0.00 0.00 0.00 0.00 0.00 0.00 0.00 0.00 0.00 0.00 0.00 0.00 0.00 0.00
0.00 0.00 0.00 0.00 0.00 0.00 0.00 0.00 0.00 0.00 0.00 0.00 0.00 0.00 0.00 0.00 0.00 0.00 0.00 0.00 0.00 0.00 0.00 0.00 0.00 0.00 0.00 0.00 0.00 0.00 0.00 0.00 0.00 0.00 0.00 0.00 0.00 0.00
0.01 0.01 0.01 0.01 0.01 0.01 0.01 0.01 0.01 0.01 0.00 0.00 0.00 0.00 0.00 0.00 0.00 0.00 0.00 0.00 0.00 0.00 0.00 0.00 0.00 0.00 0.00 0.00 0.00 0.00 0.00 0.00 0.00 0.00 0.00 0.00 0.00 0.00
0.03 0.03 0.02 0.02 0.02 0.02 0.02 0.02 0.02 0.02 0.02 0.02 0.01 0.01 0.00 0.00 0.00 0.00 0.00 0.00 0.00 0.00 0.00 0.00 0.00 0.00 0.00 0.00 0.00 0.00 0.00 0.00 0.00 0.00 0.00 0.00 0.00 0.00
0.04 0.04 0.03 0.03 0.03 0.02 0.02 0.02 0.03 0.03 0.03 0.02 0.01 0.01 0.01 0.01 0.01 0.01 0.01 0.00 0.00 0.00 0.00 0.00 0.00 0.00 0.00 0.00 0.00 0.00 0.00 0.00 0.00 0.00 0.00 0.00 0.00 0.00
0.04 0.04 0.03 0.03 0.02 0.02 0.02 0.02 0.02 0.02 0.02 0.02 0.01 0.01 0.01 0.01 0.01 0.01 0.01 0.01 0.00 0.00 0.00 0.00 0.00 0.00 0.00 0.00 0.00 0.00 0.00 0.00 0.00 0.00 0.00 0.00 0.00 0.00
0.04 0.04 0.03 0.03 0.02 0.02 0.02 0.01 0.01 0.01 0.02 0.02 0.01 0.01 0.01 0.01 0.01 0.01 0.01 0.01 0.00 0.00 0.00 0.00 0.00 0.00 0.00 0.00 0.00 0.00 0.00 0.00 0.00 0.00 0.00 0.00 0.00 0.00
0.05 0.05 0.05 0.04 0.03 0.02 0.01 0.01 0.01 0.01 0.01 0.01 0.01 0.01 0.01 0.01 0.01 0.01 0.01 0.01 0.01 0.00 0.00 0.00 0.00 0.00 0.00 0.00 0.00 0.00 0.00 0.00 0.00 0.00 0.00 0.00 0.00 0.00
0.03 0.03 0.03 0.03 0.02 0.01 0.01 0.01 0.01 0.00 0.00 0.00 0.00 0.00 0.00 0.00 0.00 0.01 0.01 0.01 0.01 0.01 0.00 0.01 0.01 0.00 0.01 0.00 0.00 0.00 0.00 0.00 0.00 0.00 0.00 0.00 0.00 0.00
0.02 0.02 0.01 0.01 0.01 0.01 0.01 0.01 0.00 0.00 0.00 0.00 0.00 0.00 0.00 0.00 0.00 0.00 0.00 0.01 0.01 0.01 0.01 0.01 0.01 0.01 0.01 0.01 0.00 0.00 0.00 0.00 0.00 0.00 0.00 0.00 0.00 0.00
0.02 0.02 0.02 0.01 0.01 0.01 0.01 0.00 0.00 0.00 0.00 0.00 0.00 0.00 0.00 0.00 0.00 0.00 0.00 0.00 0.00 0.00 0.00 0.01 0.01 0.02 0.02 0.02 0.01 0.01 0.00 0.00 0.00 0.00 0.00 0.00 0.01 0.01
0.03 0.02 0.02 0.02 0.01 0.01 0.01 0.00 0.00 0.00 0.00 0.00 0.00 0.00 0.00 0.00 0.00 0.00 0.00 0.00 0.00 0.00 0.00 0.00 0.01 0.02 0.02 0.02 0.02 0.01 0.01 0.01 0.00 0.01 0.01 0.01 0.01 0.01
0.01 0.01 0.01 0.01 0.01 0.00 0.00 0.00 0.00 0.00 0.00 0.00 0.00 0.00 0.00 0.00 0.00 0.00 0.00 0.00 0.00 0.00 0.00 0.00 0.00 0.01 0.01 0.02 0.02 0.01 0.01 0.01 0.01 0.01 0.02 0.01 0.01 0.01
0.00 0.00 0.00 0.00 0.00 0.00 0.00 0.00 0.00 0.00 0.00 0.00 0.00 0.00 0.00 0.00 0.00 0.00 0.00 0.01 0.01 0.00 0.00 0.00 0.01 0.01 0.01 0.01 0.01 0.02 0.01 0.01 0.01 0.02 0.04 0.03 0.01 0.01
0.00 0.00 0.00 0.00 0.00 0.00 0.00 0.00 0.00 0.00 0.00 0.00 0.00 0.00 0.00 0.01 0.01 0.01 0.01 0.01 0.01 0.01 0.01 0.01 0.02 0.03 0.03 0.02 0.01 0.02 0.03 0.03 0.03 0.03 0.04 0.04 0.02 0.02
0.00 0.00 0.00 0.00 0.00 0.00 0.00 0.00 0.00 0.00 0.00 0.00 0.00 0.00 0.01 0.01 0.01 0.01 0.01 0.01 0.01 0.02 0.02 0.02 0.03 0.04 0.05 0.04 0.02 0.01 0.02 0.03 0.04 0.04 0.04 0.04 0.03 0.03
0.00 0.00 0.00 0.00 0.00 0.00 0.00 0.00 0.00 0.00 0.00 0.01 0.01 0.01 0.01 0.01 0.01 0.01 0.02 0.03 0.03 0.04 0.04 0.03 0.03 0.04 0.04 0.05 0.05 0.03 0.02 0.04 0.05 0.06 0.06 0.07 0.06 0.05
0.00 0.00 0.00 0.00 0.00 0.00 0.01 0.01 0.01 0.01 0.01 0.01 0.01 0.01 0.02 0.02 0.03 0.04 0.04 0.04 0.03 0.04 0.03 0.03 0.03 0.04 0.06 0.08 0.07 0.05 0.05 0.05 0.06 0.08 0.09 0.11 0.12 0.10
0.00 0.00 0.00 0.00 0.01 0.01 0.01 0.01 0.01 0.01 0.01 0.01 0.01 0.02 0.03 0.03 0.04 0.04 0.03 0.03 0.03 0.03 0.03 0.03 0.03 0.04 0.06 0.07 0.08 0.08 0.08 0.07 0.07 0.06 0.06 0.08 0.09 0.09
MSLP
1020.46 1020.62 1020.81 1021.01 1021.18 1021.31 1021.38 1021.39 1021.34 1021.25 1021.14 1021.00 1020.86 1020.71 1020.56 1020.40 1020.24 1020.08 1019.93 1019.82 1019.75 1019.73 1019.77 1019.85 1019.95 1020.07 1020.17 1020.23 1020.26 1020.25 1020.20 1020.15 1020.09 1020.06 1020.05 1020.08 1020.14 1020.21
1020.28 1020.42 1020.57 1020.73 1020.88 1020.99 1021.06 1021.07 1021.05 1020.99 1020.91 1020.80 1020.69 1020.55 1020.40 1020.24 1020.06 1019.88 1019.71 1019.57 1019.48 1019.44 1019.46 1019.53 1019.64 1019.75 1019.86 1019.93 1019.96 1019.95 1019.91 1019.84 1019.78 1019.72 1019.70 1019.70 1019.73 1019.78
1019.98 1020.09 1020.22 1020.35 1020.46 1020.55 1020.60 1020.62 1020.61 1020.58 1020.53 1020.46 1020.37 1020.26 1020.13 1019.97 1019.79 1019.60 1019.41 1019.25 1019.13 1019.07 1019.07 1019.11 1019.20 1019.30 1019.40 1019.47 1019.51 1019.51 1019.48 1019.43 1019.37 1019.32 1019.30 1019.30 1019.32 1019.35
1019.60 1019.72 1019.83 1019.93 1020.02 1020.08 1020.11 1020.13 1020.12 1020.10 1020.08 1020.04 1019.98 1019.90 1019.79 1019.65 1019.48 1019.28 1019.08 1018.90 1018.75 1018.64 1018.59 1018.59 1018.64 1018.70 1018.77 1018.83 1018.87 1018.88 1018.87 1018.84 1018.82 1018.80 1018.80 1018.81 1018.84 1018.87
1019.24 1019.37 1019.48 1019.56 1019.63 1019.67 1019.68 1019.68 1019.67 1019.65 1019.64 1019.61 1019.58 1019.52 1019.44 1019.31 1019.15 1018.96 1018.75 1018.54 1018.34 1018.19 1018.07 1018.00 1017.97 1017.98 1018.00 1018.02 1018.04 1018.06 1018.06 1018.07 1018.08 1018.10 1018.13 1018.18 1018.23 1018.28
1018.98 1019.12 1019.24 1019.32 1019.37 1019.39 1019.38 1019.36 1019.33 1019.30 1019.27 1019.25 1019.22 1019.18 1019.11 1019.00 1018.85 1018.66 1018.43 1018.19 1017.95 1017.72 1017.53 1017.37 1017.25 1017.17 1017.12 1017.09 1017.07 1017.07 1017.08 1017.11 1017.16 1017.22 1017.30 1017.39 1017.47 1017.55
1018.87 1019.04 1019.17 1019.25 1019.29 1019.29 1019.26 1019.21 1019.15 1019.08 1019.03 1018.99 1018.95 1018.90 1018.83 1018.72 1018.57 1018.38 1018.14 1017.87 1017.58 1017.29 1017.01 1016.75 1016.53 1016.35 1016.20 1016.09 1016.03 1015.99 1016.00 1016.04 1016.11 1016.20 1016.31 1016.43 1016.55 1016.66
1018.94 1019.13 1019.27 1019.36 1019.39 1019.38 1019.32 1019.23 1019.12 1019.01 1018.91 1018.83 1018.75 1018.68 1018.59 1018.48 1018.33 1018.13 1017.88 1017.58 1017.25 1016.89 1016.53 1016.19 1015.86 1015.57 1015.33 1015.14 1015.00 1014.92 1014.90 1014.92 1014.99 1015.10 1015.22 1015.36 1015.50 1015.62
1019.16 1019.36 1019.51 1019.61 1019.63 1019.60 1019.51 1019.38 1019.22 1019.05 1018.89 1018.75 1018.62 1018.51 1018.39 1018.26 1018.09 1017.89 1017.63 1017.31 1016.95 1016.55 1016.12 1015.70 1015.28 1014.90 1014.57 1014.29 1014.08 1013.94 1013.87 1013.86 1013.90 1013.99 1014.10 1014.23 1014.35 1014.47
1019.48 1019.68 1019.83 1019.92 1019.95 1019.89 1019.77 1019.60 1019.38 1019.15 1018.93 1018.71 1018.52 1018.35 1018.19 1018.03 1017.85 1017.63 1017.37 1017.05 1016.67 1016.24 1015.78 1015.30 1014.83 1014.37 1013.96 1013.61 1013.32 1013.12 1012.98 1012.91 1012.91 1012.94 1013.01 1013.09 1013.18 1013.27
1019.84 1020.02 1020.16 1020.24 1020.25 1020.18 1020.03 1019.81 1019.54 1019.25 1018.95 1018.67 1018.41 1018.18 1017.98 1017.78 1017.58 1017.36 1017.09 1016.77 1016.39 1015.96 1015.48 1014.98 1014.47 1013.97 1013.51 1013.09 1012.75 1012.47 1012.26 1012.12 1012.03 1011.99 1011.98 1011.99 1012.01 1012.04
1020.18 1020.33 1020.44 1020.50 1020.48 1020.39 1020.20 1019.95 1019.63 1019.28 1018.92 1018.58 1018.26 1017.97 1017.72 1017.49 1017.27 1017.03 1016.76 1016.45 1016.08 1015.66 1015.19 1014.69 1014.16 1013.65 1013.15 1012.70 1012.30 1011.95 1011.67 1011.44 1011.27 1011.13 1011.02 1010.93 1010.86 1010.81
1020.47 1020.56 1020.63 1020.66 1020.61 1020.48 1020.27 1019.98 1019.62 1019.22 1018.81 1018.41 1018.04 1017.71 1017.41 1017.15 1016.91 1016.66 1016.39 1016.08 1015.72 1015.32 1014.86 1014.37 1013.85 1013.33 1012.82 1012.34 1011.89 1011.49 1011.14 1010.82 1010.55 1010.30 1010.08 1009.89 1009.71 1009.57
1020.68 1020.72 1020.74 1020.71 1020.63 1020.46 1020.21 1019.88 1019.49 1019.06 1018.61 1018.17 1017.76 1017.39 1017.07 1016.77 1016.50 1016.24 1015.96 1015.65 1015.30 1014.90 1014.45 1013.97 1013.46 1012.94 1012.42 1011.92 1011.44 1010.99 1010.57 1010.17 1009.80 1009.45 1009.12 1008.82 1008.54 1008.31
1020.84 1020.81 1020.76 1020.68 1020.54 1020.32 1020.03 1019.67 1019.25 1018.80 1018.33 1017.87 1017.44 1017.04 1016.69 1016.37 1016.08 1015.79 1015.49 1015.16 1014.80 1014.39 1013.94 1013.46 1012.95 1012.42 1011.90 1011.37 1010.87 1010.37 1009.89 1009.42 1008.96 1008.52 1008.09 1007.69 1007.32 1007.01
1020.96 1020.86 1020.74 1020.58 1020.38 1020.11 1019.78 1019.38 1018.94 1018.47 1017.99 1017.53 1017.09 1016.69 1016.32 1015.98 1015.66 1015.34 1015.01 1014.65 1014.25 1013.81 1013.34 1012.83 1012.30 1011.76 1011.21 1010.67 1010.13 1009.59 1009.06 1008.53 1008.00 1007.48 1006.97 1006.49 1006.06 1005.68
1021.07 1020.89 1020.69 1020.46 1020.19 1019.86 1019.47 1019.05 1018.59 1018.12 1017.64 1017.19 1016.76 1016.36 1015.99 1015.64 1015.29 1014.94 1014.56 1014.15 1013.69 1013.20 1012.68 1012.12 1011.55 1010.98 1010.40 1009.82 1009.24 1008.67 1008.10 1007.52 1006.94 1006.36 1005.80 1005.26 1004.77 1004.35
1021.17 1020.92 1020.65 1020.35 1020.00 1019.61 1019.18 1018.72 1018.25 1017.78 1017.32 1016.89 1016.48 1016.10 1015.73 1015.37 1015.00 1014.61 1014.17 1013.70 1013.18 1012.61 1012.02 1011.40 1010.77 1010.14 1009.52 1008.90 1008.29 1007.68 1007.07 1006.46 1005.84 1005.23 1004.63 1004.06 1003.54 1003.10
1021.29 1020.98 1020.63 1020.26 1019.84 1019.40 1018.93 1018.45 1017.97 1017.51 1017.07 1016.66 1016.28 1015.92 1015.57 1015.20 1014.81 1014.38 1013.89 1013.35 1012.75 1012.11 1011.43 1010.74 1010.04 1009.35 1008.67 1008.01 1007.36 1006.72 1006.09 1005.46 1004.82 1004.18 1003.56 1002.97 1002.43 1001.97
1021.42 1021.05 1020.65 1020.21 1019.74 1019.25 1018.75 1018.25 1017.77 1017.32 1016.91 1016.54 1016.19 1015.85 1015.51 1015.14 1014.73 1014.26 1013.72 1013.11 1012.44 1011.71 1010.96 1010.19 1009.42 1008.67 1007.94 1007.24 1006.56 1005.90 1005.25 1004.60 1003.95 1003.31 1002.68 1002.07 1001.52 1001.04
1021.55 1021.15 1020.70 1020.22 1019.71 1019.18 1018.65 1018.15 1017.67 1017.24 1016.86 1016.51 1016.19 1015.87 1015.54 1015.17 1014.73 1014.23 1013.64 1012.97 1012.23 1011.44 1010.62 1009.78 1008.95 1008.15 1007.38 1006.65 1005.95 1005.27 1004.61 1003.96 1003.31 1002.66 1002.03 1001.42 1000.85 1000.35
1021.69 1021.26 1020.79 1020.27 1019.73 1019.18 1018.64 1018.13 1017.67 1017.25 1016.88 1016.55 1016.24 1015.94 1015.61 1015.23 1014.78 1014.24 1013.61 1012.90 1012.11 1011.26 1010.39 1009.50 1008.63 1007.79 1007.00 1006.24 1005.53 1004.85 1004.19 1003.54 1002.89 1002.25 1001.61 1000.99 1000.41 999.89
1021.82 1021.38 1020.88 1020.35 1019.80 1019.24 1018.70 1018.19 1017.72 1017.31 1016.95 1016.63 1016.33 1016.02 1015.68 1015.28 1014.80 1014.24 1013.58 1012.83 1012.00 1011.12 1010.21 1009.30 1008.41 1007.56 1006.75 1005.99 1005.28 1004.60 1003.95 1003.30 1002.66 1002.01 1001.37 1000.75 1000.15 999.60
Thickness
5701 5700 5699 5699 5698 5698 5697 5696 5692 5689 5690 5693 5696 5698 5698 5698 5698 5697 5696 5695 5694 5693 5692 5691 5691 5690 5689 5689 5688 5688 5687 5687 5687 5687 5686 5686 5686 5686
5697 5697 5696 5696 5695 5695 5694 5692 5691 5689 5686 5690 5691 5693 5694 5694 5694 5693 5693 5692 5691 5690 5690 5689 5688 5688 5687 5687 5686 5685 5685 5684 5684 5684 5684 5683 5683 5683
5694 5693 5693 5692 5691 5690 5689 5688 5686 5685 5684 5686 5686 5688 5688 5689 5690 5689 5689 5688 5688 5688 5687 5687 5686 5685 5684 5684 5683 5683 5683 5682 5682 5681 5681 5681 5680 5680
5691 5689 5689 5688 5687 5686 5685 5683 5682 5681 5680 5680 5682 5683 5683 5684 5684 5684 5684 5685 5684 5685 5685 5684 5684 5683 5682 5682 5681 5680 5680 5679 5679 5679 5679 5678 5678 5678
5687 5685 5684 5683 5682 5681 5680 5679 5678 5677 5675 5674 5676 5677 5677 5678 5678 5678 5679 5679 5680 5681 5681 5681 5681 5680 5680 5679 5679 5678 5677 5677 5677 5676 5676 5675 5675 5675
5683 5681 5679 5677 5676 5675 5674 5673 5672 5670 5669 5668 5669 5670 5670 5670 5669 5669 5672 5673 5674 5675 5676 5676 5676 5676 5677 5676 5676 5675 5674 5674 5674 5673 5673 5673 5672 5672
5676 5674 5672 5671 5670 5668 5667 5665 5663 5661 5660 5660 5661 5662 5662 5661 5660 5661 5662 5665 5667 5668 5669 5671 5670 5671 5671 5671 5671 5670 5670 5670 5670 5670 5670 5669 5669 5668
5668 5666 5663 5661 5660 5659 5658 5656 5654 5652 5651 5650 5650 5651 5653 5652 5651 5650 5650 5652 5657 5662 5658 5662 5662 5663 5665 5664 5665 5665 5665 5665 5665 5665 5665 5665 5665 5665
5658 5655 5652 5650 5648 5646 5645 5644 5642 5641 5639 5638 5638 5639 5639 5639 5638 5639 5639 5640 5644 5649 5646 5653 5655 5655 5658 5658 5659 5659 5659 5659 5660 5660 5660 5660 5660 5660
5644 5641 5638 5635 5634 5633 5632 5631 5629 5627 5626 5625 5625 5625 5625 5625 5624 5625 5626 5629 5634 5635 5634 5639 5647 5649 5651 5651 5652 5652 5652 5652 5653 5653 5653 5654 5654 5655
5629 5627 5625 5622 5620 5618 5617 5616 5614 5614 5613 5612 5611 5611 5611 5611 5611 5611 5613 5614 5621 5626 5624 5625 5634 5637 5642 5644 5644 5643 5644 5644 5644 5645 5645 5646 5646 5646
5613 5611 5609 5607 5605 5604 5602 5600 5600 5600 5599 5599 5598 5598 5597 5598 5597 5596 5597 5598 5603 5608 5613 5611 5616 5616 5626 5634 5633 5632 5632 5633 5633 5635 5636 5636 5636 5635
5599 5595 5593 5591 5590 5588 5586 5585 5584 5585 5585 5584 5584 5584 5584 5583 5583 5582 5581 5581 5584 5588 5591 5590 5595 5597 5601 5614 5618 5618 5617 5619 5621 5623 5624 5625 5626 5625
5585 5581 5578 5576 5575 5573 5571 5570 5569 5569 5569 5569 5569 5568 5568 5568 5568 5567 5566 5565 5566 5568 5570 5569 5573 5576 5581 5591 5599 5603 5603 5603 5604 5607 5610 5612 5613 5615
5570 5567 5564 5561 5559 5557 5555 5554 5553 5552 5551 5551 5550 5549 5549 5549 5549 5549 5550 5550 5552 5552 5552 5551 5552 5556 5559 5566 5575 5580 5583 5586 5586 5588 5592 5595 5599 5601
5553 5550 5547 5544 5541 5539 5538 5536 5534 5533 5532 5531 5531 5530 5529 5529 5529 5529 5531 5533 5535 5538 5535 5533 5533 5534 5540 5545 5550 5557 5560 5564 5569 5569 5572 5577 5582 5585
5535 5532 5529 5526 5524 5522 5519 5517 5515 5513 5512 5512 5511 5511 5510 5511 5511 5510 5510 5512 5513 5518 5521 5519 5517 5518 5522 5526 5532 5539 5543 5547 5550 5551 5552 5559 5567 5570
5516 5513 5510 5507 5504 5503 5501 5499 5496 5494 5493 5492 5491 5491 5491 5491 5492 5492 5491 5493 5495 5499 5501 5503 5504 5507 5513 5518 5519 5523 5528 5531 5534 5535 5536 5541 5553 5558
5497 5493 5490 5487 5485 5483 5481 5480 5479 5477 5475 5474 5474 5473 5473 5473 5474 5475 5476 5477 5480 5483 5485 5487 5488 5490 5498 5509 5516 5510 5512 5517 5518 5521 5525 5529 5538 5547
5477 5473 5471 5469 5467 5465 5464 5463 5462 5461 5460 5459 5458 5458 5457 5458 5459 5461 5462 5464 5466 5470 5473 5476 5478 5480 5484 5492 5501 5505 5502 5503 5507 5512 5517 5521 5527 5532
5458 5455 5453 5451 5449 5448 5447 5446 5446 5446 5446 5445 5445 5445 5445 5445 5447 5449 5451 5453 5455 5459 5463 5469 5472 5473 5476 5482 5490 5500 5501 5500 5501 5503 5508 5512 5518 5523
5442 5440 5438 5436 5435 5434 5433 5433 5433 5433 5434 5434 5434 5434 5435 5435 5437 5440 5443 5446 5449 5452 5456 5462 5466 5469 5472 5477 5484 5491 5497 5499 5500 5501 5502 5505 5509 5519
5429 5427 5425 5425 5424 5423 5423 5423 5423 5423 5423 5423 5424 5425 5426 5427 5430 5433 5436 5439 5443 5447 5451 5457 5462 5465 5470 5474 5480 5486 5491 5495 5498 5502 5506 5508 5510 5514